Location: Catacaguana
(10.4120°N, 66.7591°W)
Time: 23:20:52
(UTC+00:00)

Cosmos 2278 - Visible Passes

Search period start: 07 October 2022 00:00
Search period end: 17 October 2022 00:00
Orbit: 841 x 851 km, 71.1° (Epoch: 07 October)

Date Brightness Start Highest point End Pass type
(mag) Time Alt. Az. Time Alt. Az. Time Alt. Az.
07 Oct 4.7 08:27:27 10° N 08:32:48 45° ENE 08:38:10 10° SE visible
08 Oct 4.7 08:14:23 13° N 08:19:03 43° ENE 08:24:24 10° SE visible
09 Oct 4.7 08:03:42 34° NE 08:05:19 42° ENE 08:10:36 10° SE visible
09 Oct 5.3 09:46:27 10° WNW 09:49:03 13° WSW 09:51:40 10° SW visible
10 Oct 4.9 07:52:28 38° E 07:52:28 38° E 07:56:49 10° SE visible
10 Oct 5.2 09:34:30 14° W 09:35:19 14° WSW 09:38:08 10° SW visible
11 Oct 5.7 07:40:49 22° SE 07:40:49 22° SE 07:43:02 10° SE visible
11 Oct 5.4 09:22:51 14° WSW 09:22:51 14° WSW 09:24:34 10° SW visible
12 Oct 6.3 07:28:54 12° SE 07:28:54 12° SE 07:29:14 10° SE visible
12 Oct 5.7 09:10:54 10° SW 09:10:54 10° SW 09:11:00 10° SW visible
